IU1JVO-13 Weather Reports


Display with metric or nautical units.
time (UTC)temp
F
wind
direction
speed
MPH
gust
MPH
rain 1hr
in
rain 24hr
in
rain mn
in
humidity
%
barometer
mb
20260905160936 93 248 9.0 11.0 0.00 0.00 0.00 24 1021.6
20260905160713 93 262 8.0 14.0 0.00 0.00 0.00 24 1021.7
20260905160439 93 279 8.0 14.0 0.00 0.00 0.00 24 1021.6
20260905155936 92 272 7.0 14.0 0.00 0.00 0.00 25 1021.5
20260905155712 92 252 7.0 14.0 0.00 0.00 0.00 25 1021.5
20260905155436 92 238 7.0 14.0 0.00 0.00 0.00 25 1021.5
20260905155205 92 236 6.0 14.0 0.00 0.00 0.00 25 1021.5
20260905154712 92 236 6.0 14.0 0.00 0.00 0.00 25 1021.4
20260905154435 92 230 6.0 15.0 0.00 0.00 0.00 25 1021.5
20260905153937 93 230 6.0 15.0 0.00 0.00 0.00 24 1021.4
20260905153712 93 238 6.0 15.0 0.00 0.00 0.00 24 1021.5
20260905153437 93 243 7.0 16.0 0.00 0.00 0.00 24 1021.4
20260905152936 93 243 7.0 16.0 0.00 0.00 0.00 24 1021.2
20260905152712 93 237 7.0 16.0 0.00 0.00 0.00 24 1021.4
20260905152436 93 237 8.0 16.0 0.00 0.00 0.00 24 1021.4
20260905152208 93 247 11.0 16.0 0.00 0.00 0.00 24 1021.4
20260905151712 93 252 13.0 16.0 0.00 0.00 0.00 24 1021.4
20260905151434 93 253 13.0 16.0 0.00 0.00 0.00 24 1021.5
20260905150935 93 253 13.0 16.0 0.00 0.00 0.00 24 1021.4
20260905150919 93 253 13.0 16.0 0.00 0.00 0.00 24 1021.6
20260905145934 93 248 10.0 16.0 0.00 0.00 0.00 24 1021.4
20260905145711 93 248 9.0 16.0 0.00 0.00 0.00 24 1021.4
20260905145433 93 250 9.0 15.0 0.00 0.00 0.00 24 1021.3
20260905144948 93 241 8.0 13.0 0.00 0.00 0.00 24 1021.4
20260905144941 93 245 9.0 13.0 0.00 0.00 0.00 24 1021.3
20260905144918 93 241 9.0 13.0 0.00 0.00 0.00 24 1021.4
20260905143933 93 245 7.0 15.0 0.00 0.00 0.00 24 1021.1
20260905143707 93 244 6.0 15.0 0.00 0.00 0.00 24 1021.4
20260905143433 93 240 7.0 20.0 0.00 0.00 0.00 23 1021.3
20260905142933 94 235 8.0 20.0 0.00 0.00 0.00 23 1021.4
20260905142710 94 236 8.0 20.0 0.00 0.00 0.00 23 1021.5
20260905142433 94 240 10.0 20.0 0.00 0.00 0.00 23 1021.5
20260905141932 94 247 10.0 20.0 0.00 0.00 0.00 23 1021.3
20260905141708 94 245 10.0 21.0 0.00 0.00 0.00 23 1021.5
20260905141432 94 234 8.0 21.0 0.00 0.00 0.00 23 1021.5
20260905140932 94 230 9.0 21.0 0.00 0.00 0.00 23 1021.5
20260905140708 95 231 9.0 21.0 0.00 0.00 0.00 22 1021.3
20260905140432 95 240 9.0 21.0 0.00 0.00 0.00 22 1021.5
20260905135932 95 235 8.0 18.0 0.00 0.00 0.00 23 1021.3
20260905135706 94 235 8.0 18.0 0.00 0.00 0.00 23 1021.3
20260905135432 95 231 8.0 18.0 0.00 0.00 0.00 22 1021.5
20260905134932 95 224 7.0 20.0 0.00 0.00 0.00 22 1021.5
20260905134707 95 223 6.0 20.0 0.00 0.00 0.00 22 1021.4
20260905134432 95 224 7.0 20.0 0.00 0.00 0.00 22 1021.4
20260905133932 94 229 8.0 20.0 0.00 0.00 0.00 22 1021.4
20260905133708 95 231 8.0 20.0 0.00 0.00 0.00 22 1021.5
20260905133702 94 232 9.0 20.0 0.00 0.00 0.00 21 1021.5
20260905132932 95 240 8.0 18.0 0.00 0.00 0.00 21 1021.4
20260905132707 95 238 8.0 17.0 0.00 0.00 0.00 22 1021.5
20260905132432 94 240 7.0 17.0 0.00 0.00 0.00 22 1021.4
20260905131932 94 231 7.0 22.0 0.00 0.00 0.00 22 1021.6
20260905131708 95 228 6.0 22.0 0.00 0.00 0.00 22 1021.5
20260905131431 94 228 7.0 22.0 0.00 0.00 0.00 22 1021.6
20260905130930 94 232 8.0 22.0 0.00 0.00 0.00 21 1021.7
20260905130707 94 237 9.0 22.0 0.00 0.00 0.00 21 1021.7
20260905130430 94 238 9.0 22.0 0.00 0.00 0.00 21 1021.7
20260905125929 94 236 8.0 20.0 0.00 0.00 0.00 22 1021.6
20260905125708 94 237 9.0 20.0 0.00 0.00 0.00 22 1021.5
20260905125429 94 236 9.0 20.0 0.00 0.00 0.00 21 1021.6
20260905124929 94 237 10.0 20.0 0.00 0.00 0.00 21 1021.7
20260905124708 94 234 10.0 20.0 0.00 0.00 0.00 21 1021.7
20260905124428 94 232 9.0 20.0 0.00 0.00 0.00 21 1021.7
20260905123927 94 238 9.0 19.0 0.00 0.00 0.00 20 1021.4
20260905123708 94 239 9.0 19.0 0.00 0.00 0.00 20 1021.5
20260905123427 94 239 9.0 20.0 0.00 0.00 0.00 21 1021.5
20260905122928 94 231 8.0 20.0 0.00 0.00 0.00 21 1021.3
20260905122707 94 230 8.0 20.0 0.00 0.00 0.00 21 1021.5
20260905122426 94 230 8.0 20.0 0.00 0.00 0.00 20 1021.6
20260905121929 94 235 9.0 24.0 0.00 0.00 0.00 20 1021.4
20260905121707 94 236 9.0 24.0 0.00 0.00 0.00 21 1021.6
20260905121425 93 236 9.0 24.0 0.00 0.00 0.00 21 1021.4
20260905120925 93 235 9.0 24.0 0.00 0.00 0.00 21 1021.5
20260905120707 93 230 9.0 24.0 0.00 0.00 0.00 20 1021.4
20260905120426 94 224 8.0 24.0 0.00 0.00 0.00 20 1021.4
20260905115925 93 224 7.0 18.0 0.00 0.00 0.00 20 1021.4
20260905115711 94 232 8.0 18.0 0.00 0.00 0.00 20 1021.3
20260905115426 94 238 7.0 18.0 0.00 0.00 0.00 20 1021.5
20260905114926 93 242 7.0 21.0 0.00 0.00 0.00 20 1021.5
20260905114706 93 236 8.0 21.0 0.00 0.00 0.00 21 1021.5
20260905114426 93 231 7.0 21.0 0.00 0.00 0.00 21 1021.7
20260905113926 93 233 8.0 21.0 0.00 0.00 0.00 21 1021.1
20260905113706 93 235 8.0 21.0 0.00 0.00 0.00 21 1021.0
20260905113426 93 238 9.0 21.0 0.00 0.00 0.00 20 1021.1
20260905112926 93 237 8.0 19.0 0.00 0.00 0.00 20 1021.0
20260905112707 93 238 9.0 19.0 0.00 0.00 0.00 20 1021.2
20260905112425 92 243 9.0 19.0 0.00 0.00 0.00 21 1021.2
20260905111926 92 237 10.0 19.0 0.00 0.00 0.00 21 1021.3
20260905111706 93 235 9.0 19.0 0.00 0.00 0.00 20 1021.4
20260905111426 93 228 8.0 19.0 0.00 0.00 0.00 20 1021.5
20260905110926 92 238 7.0 19.0 0.00 0.00 0.00 21 1021.4
20260905110706 92 240 8.0 19.0 0.00 0.00 0.00 21 1021.4
20260905110426 92 249 8.0 19.0 0.00 0.00 0.00 20 1021.6
20260905110159 92 242 9.0 19.0 0.00 0.00 0.00 20 1021.5
20260905105706 92 241 9.0 19.0 0.00 0.00 0.00 20 1021.6
20260905105427 92 237 9.0 19.0 0.00 0.00 0.00 20 1021.4
20260905104927 92 238 8.0 18.0 0.00 0.00 0.00 20 1021.5
20260905104707 92 240 8.0 18.0 0.00 0.00 0.00 20 1021.4
20260905104428 92 242 8.0 18.0 0.00 0.00 0.00 20 1021.6
20260905103928 92 243 8.0 19.0 0.00 0.00 0.00 20 1021.3
20260905103706 92 236 9.0 19.0 0.00 0.00 0.00 20 1021.5
20260905103428 92 235 9.0 19.0 0.00 0.00 0.00 19 1021.4
20260905102927 92 233 9.0 19.0 0.00 0.00 0.00 20 1021.6
20260905102706 92 239 9.0 20.0 0.00 0.00 0.00 19 1021.4
20260905102653 92 238 9.0 22.0 0.00 0.00 0.00 20 1021.6
20260905101928 91 238 9.0 23.0 0.00 0.00 0.00 19 1021.7
20260905101707 91 233 9.0 23.0 0.00 0.00 0.00 20 1021.6
20260905101427 91 236 9.0 23.0 0.00 0.00 0.00 20 1021.6
20260905100928 91 243 10.0 23.0 0.00 0.00 0.00 19 1021.6
20260905100707 91 247 10.0 23.0 0.00 0.00 0.00 20 1021.5
20260905100427 91 246 10.0 23.0 0.00 0.00 0.00 20 1021.4
20260905095927 90 237 10.0 20.0 0.00 0.00 0.00 20 1021.5
20260905095707 90 235 10.0 20.0 0.00 0.00 0.00 20 1021.5
20260905095426 91 234 9.0 20.0 0.00 0.00 0.00 20 1021.4
20260905094926 90 236 8.0 21.0 0.00 0.00 0.00 20 1021.5
20260905094707 90 238 8.0 21.0 0.00 0.00 0.00 20 1021.4
20260905094425 90 239 9.0 21.0 0.00 0.00 0.00 20 1021.6
20260905093925 90 241 9.0 21.0 0.00 0.00 0.00 20 1021.4
20260905093707 90 243 9.0 21.0 0.00 0.00 0.00 19 1021.4
20260905093425 90 242 8.0 21.0 0.00 0.00 0.00 19 1021.6
20260905092925 90 239 9.0 20.0 0.00 0.00 0.00 20 1021.6
20260905092709 90 236 9.0 20.0 0.00 0.00 0.00 20 1021.4
20260905092658 89 237 9.0 20.0 0.00 0.00 0.00 21 1021.4
20260905091926 89 241 9.0 20.0 0.00 0.00 0.00 21 1021.4
20260905091708 89 240 9.0 20.0 0.00 0.00 0.00 21 1021.5
20260905091425 89 240 8.0 19.0 0.00 0.00 0.00 21 1021.5
20260905090925 89 241 7.0 17.0 0.00 0.00 0.00 22 1021.4
20260905090707 89 247 7.0 17.0 0.00 0.00 0.00 21 1021.4
20260905090426 89 245 7.0 17.0 0.00 0.00 0.00 21 1021.3
20260905085926 89 241 8.0 17.0 0.00 0.00 0.00 22 1021.6
20260905085708 89 242 7.0 18.0 0.00 0.00 0.00 22 1021.4
20260905085703 89 240 7.0 18.0 0.00 0.00 0.00 23 1021.6
20260905084927 88 243 6.0 18.0 0.00 0.00 0.00 23 1021.4
20260905084707 88 235 7.0 18.0 0.00 0.00 0.00 23 1021.4
20260905084423 88 239 7.0 18.0 0.00 0.00 0.00 24 1021.4
20260905083924 88 236 7.0 18.0 0.00 0.00 0.00 24 1021.3
20260905083706 88 234 7.0 18.0 0.00 0.00 0.00 23 1021.3
20260905083428 87 235 6.0 15.0 0.00 0.00 0.00 23 1021.3
20260905082922 87 240 5.0 12.0 0.00 0.00 0.00 27 1021.3
20260905082707 86 248 5.0 12.0 0.00 0.00 0.00 27 1021.5
20260905082422 86 246 5.0 13.0 0.00 0.00 0.00 27 1021.4
20260905081922 86 255 5.0 13.0 0.00 0.00 0.00 28 1021.3
20260905081707 86 255 4.0 13.0 0.00 0.00 0.00 29 1021.3
20260905081421 86 258 5.0 13.0 0.00 0.00 0.00 29 1021.3
20260905080922 85 244 4.0 13.0 0.00 0.00 0.00 29 1021.3
20260905080708 85 240 5.0 13.0 0.00 0.00 0.00 29 1021.2
20260905080421 85 244 4.0 11.0 0.00 0.00 0.00 29 1021.3
20260905075921 85 248 5.0 11.0 0.00 0.00 0.00 28 1021.2
20260905075707 85 249 5.0 11.0 0.00 0.00 0.00 29 1021.2
20260905075422 85 235 5.0 11.0 0.00 0.00 0.00 31 1021.3
20260905074922 84 226 3.0 12.0 0.00 0.00 0.00 29 1021.3
20260905074706 84 224 2.0 12.0 0.00 0.00 0.00 30 1021.1
20260905074422 84 234 2.0 12.0 0.00 0.00 0.00 31 1021.2
20260905074154 84 244 5.0 12.0 0.00 0.00 0.00 31 1021.4
20260905073708 84 247 5.0 12.0 0.00 0.00 0.00 30 1021.4
20260905073421 83 248 4.0 12.0 0.00 0.00 0.00 29 1021.4
20260905072921 83 243 4.0 12.0 0.00 0.00 0.00 31 1021.2
20260905072707 83 244 4.0 12.0 0.00 0.00 0.00 32 1021.3
20260905072422 83 245 4.0 14.0 0.00 0.00 0.00 33 1021.3
20260905071926 82 246 3.0 14.0 0.00 0.00 0.00 34 1021.2
20260905071706 82 252 3.0 14.0 0.00 0.00 0.00 33 1021.4
20260905071421 82 256 4.0 14.0 0.00 0.00 0.00 34 1021.2
20260905070919 81 265 4.0 14.0 0.00 0.00 0.00 35 1021.2
20260905070707 80 262 4.0 14.0 0.00 0.00 0.00 35 1021.2
20260905070419 80 271 2.0 11.0 0.00 0.00 0.00 35 1021.2
20260905065919 80 270 3.0 11.0 0.00 0.00 0.00 35 1021.1
20260905065708 80 264 3.0 11.0 0.00 0.00 0.00 35 1021.1
20260905065420 80 256 3.0 11.0 0.00 0.00 0.00 35 1021.1
20260905065147 78 256 2.0 11.0 0.00 0.00 0.00 38 1020.8
20260905064704 78 302 2.0 11.0 0.00 0.00 0.00 38 1020.9
20260905064416 77 16 2.0 11.0 0.00 0.00 0.00 39 1020.9
20260905063916 75 305 1.0 4.0 0.00 0.00 0.00 43 1020.8
20260905063702 75 285 1.0 4.0 0.00 0.00 0.00 43 1020.9
20260905063416 74 288 1.0 4.0 0.00 0.00 0.00 44 1020.9
20260905063148 74 354 1.0 4.0 0.00 0.00 0.00 47 1020.9
20260905062702 74 358 1.0 5.0 0.00 0.00 0.00 46 1020.6
20260905062417 74 321 1.0 9.0 0.00 0.00 0.00 48 1020.8
20260905061917 72 310 2.0 9.0 0.00 0.00 0.00 53 1020.7
20260905061702 72 311 2.0 9.0 0.00 0.00 0.00 53 1020.8
20260905061417 72 339 2.0 9.0 0.00 0.00 0.00 53 1020.6
20260905060916 72 52 1.0 9.0 0.00 0.00 0.00 53 1020.6
20260905060701 72 50 0.0 9.0 0.00 0.00 0.00 54 1020.3
20260905060416 71 52 0.0 2.0 0.00 0.00 0.00 56 1020.7
20260905060145 71 25 0.0 3.0 0.00 0.00 0.00 56 1020.3
20260905055702 71 23 1.0 3.0 0.00 0.00 0.00 55 1020.3
20260905055415 71 13 0.0 3.0 0.00 0.00 0.00 56 1020.2
20260905054916 71 36 1.0 3.0 0.00 0.00 0.00 55 1020.2
20260905054702 71 41 1.0 3.0 0.00 0.00 0.00 57 1020.1
20260905054416 70 57 1.0 3.0 0.00 0.00 0.00 57 1020.0
20260905053916 70 85 0.0 3.0 0.00 0.00 0.00 58 1020.1
20260905053702 70 70 0.0 2.0 0.00 0.00 0.00 59 1020.2
20260905053647 69 18 0.0 2.0 0.00 0.00 0.00 59 1020.1
20260905052915 69 325 0.0 3.0 0.00 0.00 0.00 59 1020.2
20260905052702 69 326 0.0 3.0 0.00 0.00 0.00 59 1020.1
20260905052416 69 342 0.0 3.0 0.00 0.00 0.00 59 1020.1
20260905051915 70 46 1.0 3.0 0.00 0.00 0.00 58 1019.9
20260905051704 70 32 0.0 3.0 0.00 0.00 0.00 58 1020.0
20260905051416 69 58 0.0 3.0 0.00 0.00 0.00 58 1020.1
20260905050916 69 70 0.0 0.0 0.00 0.00 0.00 58 1020.0
20260905050702 69 76 0.0 0.0 0.00 0.00 0.00 57 1019.9
20260905050416 69 2 0.0 0.0 0.00 0.00 0.00 57 1019.9
20260905045916 69 269 0.0 2.0 0.00 0.00 0.00 58 1019.7
20260905045702 69 269 0.0 2.0 0.00 0.00 0.00 58 1019.8
20260905045416 69 267 0.0 2.0 0.00 0.00 0.00 58 1019.7
20260905044916 69 328 0.0 2.0 0.00 0.00 0.00 58 1019.7
20260905044702 69 16 0.0 2.0 0.00 0.00 0.00 57 1019.7
20260905044417 70 36 0.0 3.0 0.00 0.00 0.00 57 1019.6
20260905043917 69 29 0.0 3.0 0.00 0.00 0.00 58 1019.7
20260905043702 69 22 0.0 3.0 0.00 0.00 0.00 58 1019.7
20260905043648 70 350 1.0 3.0 0.00 0.00 0.00 58 1019.7
20260905042933 71 15 1.0 3.0 0.00 0.00 0.00 55 1019.9
20260905042924 70 352 1.0 3.0 0.00 0.00 0.00 57 1019.8
20260905042905 70 9 2.0 3.0 0.00 0.00 0.00 57 1019.8
20260905041918 69 318 1.0 3.0 0.00 0.00 0.00 56 1019.7
20260905041702 69 321 0.0 3.0 0.00 0.00 0.00 58 1019.7
20260905041416 69 21 0.0 3.0 0.00 0.00 0.00 58 1019.7
20260905040915 69 36 1.0 3.0 0.00 0.00 0.00 57 1019.7
20260905040703 69 29 1.0 3.0 0.00 0.00 0.00 57 1019.7
20260905040416 69 26 0.0 2.0 0.00 0.00 0.00 57 1019.8
20260905035916 69 299 0.0 0.0 0.00 0.00 0.00 61 1019.7
20260905035702 69 282 0.0 0.0 0.00 0.00 0.00 61 1019.8
20260905035416 69 296 0.0 0.0 0.00 0.00 0.00 61 1019.7
20260905034918 69 295 0.0 0.0 0.00 0.00 0.00 60 1019.6
20260905034701 69 308 0.0 0.0 0.00 0.00 0.00 60 1019.7
20260905034416 69 349 0.0 0.0 0.00 0.00 0.00 61 1019.8
20260905033916 69 50 0.0 1.0 0.00 0.00 0.00 60 1019.9
20260905033659 69 33 0.0 1.0 0.00 0.00 0.00 60 1019.9
20260905033416 69 31 0.0 1.0 0.00 0.00 0.00 60 1019.7
20260905032916 69 40 0.0 4.0 0.00 0.00 0.00 61 1019.7
20260905032658 69 64 0.0 4.0 0.00 0.00 0.00 61 1019.8
20260905032416 69 55 0.0 4.0 0.00 0.00 0.00 60 1019.8
20260905031917 68 13 1.0 4.0 0.00 0.00 0.00 62 1019.8
20260905031657 68 12 1.0 4.0 0.00 0.00 0.00 63 1019.8
20260905031417 68 320 1.0 4.0 0.00 0.00 0.00 63 1019.9
20260905030916 69 329 1.0 4.0 0.00 0.00 0.00 60 1020.1
20260905030657 69 330 1.0 4.0 0.00 0.00 0.00 62 1020.1
20260905030416 70 35 2.0 4.0 0.00 0.00 0.00 60 1020.1
20260905025915 71 50 2.0 4.0 0.00 0.00 0.00 55 1020.0
20260905025658 71 53 2.0 4.0 0.00 0.00 0.00 56 1019.9
20260905025416 70 67 1.0 3.0 0.00 0.00 0.00 58 1019.9
20260905024915 69 100 0.0 4.0 0.00 0.00 0.00 61 1019.9
20260905024657 69 100 0.0 4.0 0.00 0.00 0.00 61 1020.1
20260905024416 69 55 0.0 4.0 0.00 0.00 0.00 60 1020.1
20260905023917 70 3 1.0 4.0 0.00 0.00 0.00 61 1020.7
20260905023657 70 3 0.0 4.0 0.00 0.00 0.00 58 1020.4
20260905023417 69 7 0.0 4.0 0.00 0.00 0.00 59 1020.4
20260905022917 69 31 1.0 3.0 0.00 0.00 0.00 62 1020.4
20260905022657 69 40 1.0 3.0 0.00 0.00 0.00 62 1020.4
20260905022416 68 56 1.0 3.0 0.00 0.00 0.00 65 1020.4
20260905021916 69 119 0.0 3.0 0.00 0.00 0.00 64 1020.6
20260905021655 69 122 0.0 3.0 0.00 0.00 0.00 63 1020.4
20260905021415 69 147 0.0 4.0 0.00 0.00 0.00 64 1020.6
20260905020915 69 219 0.0 4.0 0.00 0.00 0.00 64 1020.6
20260905020655 69 237 0.0 4.0 0.00 0.00 0.00 63 1020.6
20260905020415 70 266 1.0 4.0 0.00 0.00 0.00 62 1020.7
20260905015916 71 45 1.0 4.0 0.00 0.00 0.00 59 1020.6
20260905015658 71 31 0.0 4.0 0.00 0.00 0.00 58 1020.4
20260905015417 71 17 0.0 3.0 0.00 0.00 0.00 56 1020.3
20260905015143 72 48 1.0 3.0 0.00 0.00 0.00 54 1020.4
20260905014653 71 61 1.0 3.0 0.00 0.00 0.00 54 1020.4
20260905014416 71 79 1.0 3.0 0.00 0.00 0.00 55 1020.4
20260905013914 71 97 1.0 3.0 0.00 0.00 0.00 57 1020.8
20260905013652 71 88 1.0 3.0 0.00 0.00 0.00 58 1020.8
20260905013414 71 58 1.0 3.0 0.00 0.00 0.00 58 1020.9
20260905012927 70 260 0.0 3.0 0.00 0.00 0.00 60 1020.8
20260905012921 70 312 0.0 3.0 0.00 0.00 0.00 59 1020.7
20260905012652 70 277 0.0 3.0 0.00 0.00 0.00 60 1020.7
20260905011914 71 305 1.0 3.0 0.00 0.00 0.00 61 1020.9
20260905011652 71 341 1.0 3.0 0.00 0.00 0.00 60 1021.0
20260905011414 70 14 1.0 3.0 0.00 0.00 0.00 60 1021.0
20260905010915 69 7 0.0 2.0 0.00 0.00 0.00 64 1020.8
20260905010652 69 340 0.0 2.0 0.00 0.00 0.00 64 1021.1
20260905010416 69 294 0.0 2.0 0.00 0.00 0.00 64 1020.9
20260905005912 69 278 0.0 2.0 0.00 0.00 0.00 65 1021.1
20260905005654 70 287 0.0 2.0 0.00 0.00 0.00 65 1021.2
20260905005411 70 311 0.0 2.0 0.00 0.00 0.00 64 1021.3
20260905005140 70 314 0.0 2.0 0.00 0.00 0.00 65 1021.2
20260905004649 70 306 0.0 2.0 0.00 0.00 0.00 65 1021.3
20260905004412 70 303 0.0 2.0 0.00 0.00 0.00 65 1021.2
20260905003911 70 320 0.0 2.0 0.00 0.00 0.00 64 1021.2
20260905003649 70 308 0.0 2.0 0.00 0.00 0.00 63 1021.4
20260905003411 71 279 0.0 1.0 0.00 0.00 0.00 61 1021.4
20260905002911 70 236 0.0 1.0 0.00 0.00 0.00 63 1021.3
20260905002648 70 234 0.0 1.0 0.00 0.00 0.00 64 1021.3
20260905002639 70 244 0.0 2.0 0.00 0.00 0.00 64 1021.4
20260905002146 70 258 0.0 2.0 0.00 0.00 0.00 64 1021.5
20260905001648 70 267 0.0 2.0 0.00 0.00 0.00 64 1021.4
20260905001411 70 276 0.0 2.0 0.00 0.00 0.00 64 1021.5
20260905000911 71 334 0.0 2.0 0.00 0.00 0.00 64 1021.5
20260905000648 71 345 0.0 2.0 0.00 0.00 0.00 63 1021.6
20260905000411 70 324 0.0 2.0 0.00 0.00 0.00 64 1021.5
20260904235911 70 263 0.0 2.0 0.00 0.00 0.00 66 1021.5
20260904235648 70 251 0.0 2.0 0.00 0.00 0.00 66 1021.6
20260904235411 70 250 0.0 0.0 0.00 0.00 0.00 66 1021.6
20260904234911 70 254 0.0 0.0 0.00 0.00 0.00 65 1021.6
20260904234645 70 256 0.0 0.0 0.00 0.00 0.00 65 1021.6
20260904234411 70 259 0.0 0.0 0.00 0.00 0.00 66 1021.6
20260904233911 71 267 0.0 0.0 0.00 0.00 0.00 65 1021.8
20260904233646 71 281 0.0 0.0 0.00 0.00 0.00 65 1021.8
20260904233410 71 298 0.0 0.0 0.00 0.00 0.00 64 1021.9
20260904232907 71 302 0.0 0.0 0.00 0.00 0.00 63 1021.8
20260904232650 71 283 0.0 0.0 0.00 0.00 0.00 63 1021.9
20260904232637 71 266 0.0 1.0 0.00 0.00 0.00 63 1022.0
20260904231906 71 255 0.0 2.0 0.00 0.00 0.00 64 1022.1
20260904231647 72 257 0.0 2.0 0.00 0.00 0.00 64 1022.1
20260904231406 71 255 0.0 2.0 0.00 0.00 0.00 64 1022.1
20260904230906 72 273 0.0 2.0 0.00 0.00 0.00 64 1022.1
20260904230646 72 322 0.0 2.0 0.00 0.00 0.00 64 1022.3
20260904230401 72 61 0.0 2.0 0.00 0.00 0.00 63 1022.1
20260904225901 72 85 0.0 2.0 0.00 0.00 0.00 62 1022.1
20260904225646 72 108 0.0 2.0 0.00 0.00 0.00 62 1022.3
20260904225402 72 185 0.0 2.0 0.00 0.00 0.00 63 1022.1
20260904224902 73 236 0.0 2.0 0.00 0.00 0.00 62 1022.1
20260904224646 73 246 0.0 2.0 0.00 0.00 0.00 62 1022.1
20260904224401 73 259 0.0 3.0 0.00 0.00 0.00 61 1022.1
20260904224133 74 252 0.0 5.0 0.00 0.00 0.00 60 1022.4
20260904223647 74 255 0.0 5.0 0.00 0.00 0.00 59 1022.3
20260904223400 75 260 0.0 5.0 0.00 0.00 0.00 57 1022.1
20260904222900 75 285 1.0 5.0 0.00 0.00 0.00 54 1022.4
20260904222646 75 278 1.0 5.0 0.00 0.00 0.00 55 1022.3
20260904222400 75 271 2.0 5.0 0.00 0.00 0.00 55 1022.3
20260904221858 76 272 1.0 5.0 0.00 0.00 0.00 56 1022.3
20260904221645 76 295 1.0 5.0 0.00 0.00 0.00 54 1022.3
20260904221358 76 309 0.0 5.0 0.00 0.00 0.00 55 1022.3
20260904220857 76 314 1.0 5.0 0.00 0.00 0.00 55 1022.3
20260904220646 76 302 1.0 5.0 0.00 0.00 0.00 55 1022.1
20260904220356 76 291 2.0 5.0 0.00 0.00 0.00 55 1022.1
20260904215856 76 287 2.0 5.0 0.00 0.00 0.00 55 1022.1
20260904215645 76 278 2.0 5.0 0.00 0.00 0.00 55 1022.1
20260904215356 76 281 2.0 5.0 0.00 0.00 0.00 55 1022.1
20260904214856 76 294 1.0 7.0 0.00 0.00 0.00 56 1022.3
20260904214647 76 299 1.0 7.0 0.00 0.00 0.00 57 1022.3
20260904214355 76 293 1.0 7.0 0.00 0.00 0.00 57 1022.3
20260904214133 76 276 2.0 7.0 0.00 0.00 0.00 56 1022.3
20260904213647 76 274 2.0 7.0 0.00 0.00 0.00 56 1022.3
20260904213402 76 273 1.0 4.0 0.00 0.00 0.00 57 1022.4
20260904213355 76 282 1.0 7.0 0.00 0.00 0.00 56 1022.3
20260904212647 76 277 1.0 4.0 0.00 0.00 0.00 57 1022.3
20260904212356 76 270 1.0 4.0 0.00 0.00 0.00 57 1022.4
20260904211856 76 263 1.0 4.0 0.00 0.00 0.00 58 1022.5
20260904211646 76 261 0.0 3.0 0.00 0.00 0.00 58 1022.5
20260904211356 76 263 0.0 4.0 0.00 0.00 0.00 58 1022.6
20260904211129 77 279 0.0 5.0 0.00 0.00 0.00 57 1022.6
20260904210645 77 278 0.0 5.0 0.00 0.00 0.00 57 1022.6
20260904210354 77 293 1.0 5.0 0.00 0.00 0.00 56 1022.6
20260904205854 77 299 1.0 5.0 0.00 0.00 0.00 55 1022.7
20260904205646 77 303 1.0 5.0 0.00 0.00 0.00 55 1022.6
20260904205625 78 302 1.0 5.0 0.00 0.00 0.00 55 1022.7
20260904204853 77 310 1.0 5.0 0.00 0.00 0.00 56 1022.6
20260904204646 77 309 1.0 5.0 0.00 0.00 0.00 55 1022.6
20260904204624 78 304 1.0 5.0 0.00 0.00 0.00 56 1022.7
20260904203853 77 294 1.0 5.0 0.00 0.00 0.00 56 1022.6
20260904203647 77 293 1.0 5.0 0.00 0.00 0.00 56 1022.6
20260904203352 77 281 0.0 5.0 0.00 0.00 0.00 56 1022.6
20260904202852 77 270 0.0 3.0 0.00 0.00 0.00 56 1022.6
20260904202646 77 266 0.0 3.0 0.00 0.00 0.00 56 1022.6
20260904202352 78 271 0.0 3.0 0.00 0.00 0.00 56 1022.7
20260904201851 78 296 1.0 3.0 0.00 0.00 0.00 55 1022.7
20260904201646 78 308 0.0 5.0 0.00 0.00 0.00 55 1022.7
20260904201623 78 321 0.0 5.0 0.00 0.00 0.00 55 1022.7
20260904200851 78 295 1.0 5.0 0.00 0.00 0.00 56 1022.8
20260904200646 77 284 1.0 5.0 0.00 0.00 0.00 56 1022.7
20260904200628 77 274 1.0 5.0 0.00 0.00 0.00 57 1022.7
20260904195851 78 276 0.0 5.0 0.00 0.00 0.00 56 1022.7
20260904195643 77 281 1.0 3.0 0.00 0.00 0.00 56 1022.6
20260904195352 77 290 0.0 3.0 0.00 0.00 0.00 57 1022.6
20260904194852 78 301 0.0 3.0 0.00 0.00 0.00 56 1022.7
20260904194644 78 293 0.0 3.0 0.00 0.00 0.00 56 1022.6
20260904194622 78 278 0.0 3.0 0.00 0.00 0.00 56 1022.6
20260904193849 78 263 0.0 2.0 0.00 0.00 0.00 57 1022.4
20260904193644 78 260 0.0 2.0 0.00 0.00 0.00 56 1022.4
20260904193347 78 258 0.0 2.0 0.00 0.00 0.00 55 1022.6
20260904192847 79 261 0.0 2.0 0.00 0.00 0.00 55 1022.5
20260904192641 79 265 0.0 2.0 0.00 0.00 0.00 54 1022.6
20260904192347 79 269 0.0 2.0 0.00 0.00 0.00 53 1022.6
20260904191848 79 271 0.0 5.0 0.00 0.00 0.00 53 1022.6
20260904191642 79 274 0.0 5.0 0.00 0.00 0.00 53 1022.5
20260904191347 79 274 0.0 5.0 0.00 0.00 0.00 53 1022.6
20260904191127 80 281 1.0 5.0 0.00 0.00 0.00 53 1022.4
20260904190640 80 279 1.0 5.0 0.00 0.00 0.00 53 1022.5
20260904190621 80 278 1.0 5.0 0.00 0.00 0.00 52 1022.4
20260904190345 80 282 1.0 3.0 0.00 0.00 0.00 52 1022.4
20260904185641 80 291 0.0 3.0 0.00 0.00 0.00 52 1022.3
20260904185346 80 306 0.0 3.0 0.00 0.00 0.00 52 1022.4
20260904184846 80 282 0.0 2.0 0.00 0.00 0.00 52 1022.1
20260904184641 80 255 0.0 2.0 0.00 0.00 0.00 52 1022.1
20260904184616 79 218 0.0 1.0 0.00 0.00 0.00 53 1022.0
20260904183846 79 193 0.0 1.0 0.00 0.00 0.00 54 1021.7
20260904183640 79 191 0.0 1.0 0.00 0.00 0.00 54 1021.8
20260904183352 80 80 0.0 1.0 0.00 0.00 0.00 54 1021.6
20260904183347 80 176 0.0 1.0 0.00 0.00 0.00 54 1021.9
20260904182644 80 63 0.0 1.0 0.00 0.00 0.00 53 1021.7
20260904182346 80 57 0.0 3.0 0.00 0.00 0.00 53 1021.6
20260904181843 80 55 0.0 3.0 0.00 0.00 0.00 53 1021.6
20260904181641 81 54 0.0 3.0 0.00 0.00 0.00 53 1021.7
20260904181342 81 62 0.0 3.0 0.00 0.00 0.00 52 1021.6
20260904181111 81 159 0.0 3.0 0.00 0.00 0.00 52 1021.6
20260904180642 81 185 0.0 3.0 0.00 0.00 0.00 51 1021.6
20260904180341 82 172 0.0 2.0 0.00 0.00 0.00 51 1021.6
20260904175842 82 186 0.0 2.0 0.00 0.00 0.00 51 1021.4
20260904175641 82 201 0.0 3.0 0.00 0.00 0.00 50 1021.5
20260904175341 83 201 0.0 4.0 0.00 0.00 0.00 50 1021.6
20260904174841 83 243 0.0 4.0 0.00 0.00 0.00 49 1021.6
20260904174641 83 251 1.0 4.0 0.00 0.00 0.00 49 1021.7
20260904174341 84 253 1.0 4.0 0.00 0.00 0.00 48 1021.6
20260904173841 84 199 1.0 4.0 0.00 0.00 0.00 47 1021.4
20260904173641 84 162 1.0 4.0 0.00 0.00 0.00 47 1021.5
20260904173336 85 125 0.0 2.0 0.00 0.00 0.00 46 1021.5
20260904172835 85 113 0.0 4.0 0.00 0.00 0.00 45 1021.5
20260904172641 85 120 0.0 4.0 0.00 0.00 0.00 45 1021.5
20260904172337 85 126 0.0 4.0 0.00 0.00 0.00 44 1021.6
20260904171837 86 119 1.0 4.0 0.00 0.00 0.00 44 1021.6
20260904171642 86 113 1.0 4.0 0.00 0.00 0.00 43 1021.6
20260904171338 86 125 1.0 4.0 0.00 0.00 0.00 43 1021.5
20260904170836 87 138 0.0 3.0 0.00 0.00 0.00 42 1021.6
20260904170639 87 144 1.0 5.0 0.00 0.00 0.00 42 1021.5
20260904170335 87 153 1.0 5.0 0.00 0.00 0.00 42 1021.5
20260904165836 88 161 1.0 5.0 0.00 0.00 0.00 41 1021.6
20260904165640 89 158 1.0 5.0 0.00 0.00 0.00 40 1021.7
20260904165336 89 141 1.0 6.0 0.00 0.00 0.00 40 1021.6
20260904164837 89 156 2.0 6.0 0.00 0.00 0.00 40 1021.7
20260904164640 89 63 1.0 6.0 0.00 0.00 0.00 40 1021.7
20260904164336 89 274 1.0 6.0 0.00 0.00 0.00 39 1021.7
20260904163836 89 77 1.0 7.0 0.00 0.00 0.00 40 1021.6
20260904163640 89 200 1.0 7.0 0.00 0.00 0.00 40 1021.7
20260904163336 89 212 1.0 7.0 0.00 0.00 0.00 39 1021.7
20260904162835 90 159 2.0 7.0 0.00 0.00 0.00 39 1021.6
20260904162637 90 154 2.0 7.0 0.00 0.00 0.00 39 1021.5
20260904162336 90 161 2.0 7.0 0.00 0.00 0.00 39 1021.6
20260904162107 90 158 2.0 7.0 0.00 0.00 0.00 39 1021.6
20260904161637 90 162 2.0 7.0 0.00 0.00 0.00 39 1021.6